Weather History for St. Joseph, MO

Change the Weather History Date:

Wednesday, September 18, 2013

  Actual Average Record
Temperature  
Mean Temperature 78 °F 66 °F  
Max Temperature 90 °F 78 °F 98 °F (1925)
Min Temperature 66 °F 53 °F 36 °F (1981)
Degree Days  
Heating Degree Days 0 3  
Month to date heating degree days 7 23  
Since 1 July heating degree days 9 28  
Cooling Degree Days 13 3  
Month to date cooling degree days 155 91  
Year to date cooling degree days 1225 1168  
Growing Degree Days 28 (Base 50)    
Moisture  
Dew Point 67 °F    
Average Humidity 72    
Maximum Humidity 93    
Minimum Humidity 50    
Precipitation  
Precipitation 0.00 in 0.11 in 1.43 in (1966)
Month to date precipitation 2.29 2.28  
Year to date precipitation 21.96 28.58  
Sea Level Pressure  
Sea Level Pressure 29.85 in    
Wind  
Wind Speed 12 mph (South)    
Max Wind Speed 24 mph    
Max Gust Speed 31 mph    
Visibility 8 miles    
Events      
T = Trace of Precipitation, MM = Missing Value Source: NWS Daily Summary

Daily Weather History Graph

Daily Weather History Graph

Search for Another Location

Airport:

Trip Planner

Search our weather history database for the weather conditions in past years. The results will help you decide how hot, cold, wet, or windy it might be!

Date:

Astronomy

Sep. 18, 2013 Rise Set
Actual Time 7:03 AM CDT 7:22 PM CDT
Civil Twilight 6:36 AM CDT 7:49 PM CDT
Nautical Twilight 6:05 AM CDT 8:21 PM CDT
Astronomical Twilight 5:32 AM CDT 8:53 PM CDT
Moon 6:46 PM CDT 6:07 AM CDT
Length of Visible Light 13h 13m
Length of Day
12h 19m
Waxing Gibbous, 99% of the Moon is Illuminated
Sep 18
Waxing Gibbous
Sep 19
Full
Sep 26
Last Quarter
Oct 4
New
Oct 11
First Quarter

Hourly Weather History & Observations

Time (CDT) Temp. Heat Index Dew Point Humidity Pressure Visibility Wind Dir Wind Speed Gust Speed Precip Events Conditions
12:53 AM 66.0 °F - 64.0 °F 93% 29.96 in 4.0 mi SSE 5.8 mph - N/A   Clear
1:53 AM 66.9 °F - 64.9 °F 93% 29.94 in 4.0 mi South 5.8 mph - N/A   Mostly Cloudy
2:53 AM 66.9 °F - 64.9 °F 93% 29.93 in 4.0 mi South 8.1 mph - N/A   Scattered Clouds
3:53 AM 66.9 °F - 64.9 °F 93% 29.91 in 5.0 mi South 6.9 mph - N/A   Clear
4:53 AM 68.0 °F - 64.9 °F 90% 29.90 in 6.0 mi South 8.1 mph - N/A   Partly Cloudy
5:53 AM 68.0 °F - 64.9 °F 90% 29.90 in 7.0 mi South 8.1 mph - N/A   Clear
6:53 AM 68.0 °F - 64.9 °F 90% 29.90 in 6.0 mi SSE 6.9 mph - N/A   Clear
7:53 AM 70.0 °F - 66.0 °F 87% 29.91 in 7.0 mi SSE 9.2 mph - N/A   Mostly Cloudy
8:53 AM 73.9 °F - 66.9 °F 79% 29.90 in 10.0 mi South 10.4 mph - N/A   Mostly Cloudy
9:53 AM 78.1 °F - 66.9 °F 68% 29.91 in 10.0 mi SSW 11.5 mph 20.7 mph N/A   Scattered Clouds
10:53 AM 82.0 °F 84.9 °F 68.0 °F 62% 29.89 in 10.0 mi SSW 19.6 mph 25.3 mph N/A   Clear
11:53 AM 84.0 °F 87.8 °F 69.1 °F 61% 29.87 in 10.0 mi South 17.3 mph 21.9 mph N/A   Clear
12:53 PM 86.0 °F 90.1 °F 69.1 °F 57% 29.85 in 10.0 mi South 16.1 mph - N/A   Clear
1:53 PM 87.1 °F 91.3 °F 69.1 °F 55% 29.82 in 10.0 mi South 15.0 mph 24.2 mph N/A   Clear
2:53 PM 88.0 °F 92.1 °F 69.1 °F 53% 29.79 in 10.0 mi South 18.4 mph 27.6 mph N/A   Clear
3:53 PM 89.1 °F 93.7 °F 69.1 °F 52% 29.77 in 10.0 mi South 18.4 mph 28.8 mph N/A   Clear
4:53 PM 89.1 °F 92.9 °F 68.0 °F 50% 29.76 in 10.0 mi South 21.9 mph 28.8 mph N/A   Clear
5:53 PM 87.1 °F 90.6 °F 68.0 °F 53% 29.76 in 10.0 mi South 13.8 mph 27.6 mph N/A   Clear
6:53 PM 84.9 °F 88.2 °F 68.0 °F 57% 29.77 in 10.0 mi South 11.5 mph 19.6 mph N/A   Scattered Clouds
7:53 PM 82.0 °F 85.5 °F 69.1 °F 65% 29.78 in 10.0 mi South 10.4 mph - N/A   Partly Cloudy
8:53 PM 80.1 °F 82.9 °F 69.1 °F 69% 29.80 in 10.0 mi SSE 9.2 mph - N/A   Clear
9:53 PM 80.1 °F 82.9 °F 69.1 °F 69% 29.81 in 10.0 mi South 11.5 mph - N/A   Clear
10:53 PM 79.0 °F - 69.1 °F 72% 29.81 in 10.0 mi South 12.7 mph - N/A   Clear
11:53 PM 80.1 °F 82.7 °F 68.0 °F 67% 29.81 in 10.0 mi South 11.5 mph - N/A   Clear